User: anonymous   Login
Location: Wawayanda State Park
(41.1833°N, 74.4333°W)
Time: 06:43:25
(UTC-05:00)
Language:

Landsat 7 - Orbit

View from above orbital plane
View from above orbital plane
View from above satellite
View from above satellite

Ground track
Ground track

The orbit data is extracted from the following two-line orbital elements,

1 25682U 99020A   14331.10995722 -.00000595  00000-0 -12205-3 0  8331
2 25682 098.2222 038.6169 0000784 079.3384 280.7860 14.57100813830716
Epoch (UTC): 27 November 2014 02:38:20
Eccentricity: 0.0000784
inclination: 98.2222°
perigee height: 702 km
apogee height: 703 km
right ascension of ascending node: 38.6169°
argument of perigee: 79.3384°
revolutions per day: 14.57100813
mean anomaly at epoch: 280.7860°
orbit number at epoch: 83071

The dashed part of the orbit path shows where the satellite is in the earth's shadow,  

DLR